Probability
0 0 0 0 0 0 0 0 0 0 0 3 0 0 0 0 0 0 0 0 0 0 0 0 0 0 0 0 0 0 0 0 0 0 0 0 0 0 0 0 0 0 0
0 0 0 0 0 0 0 0 0 0 0 0 0 0 0 0 0 0 0 0 0 0 0 0 0 0 0 0 0 0 0 0 0 0 0 0 0 0 0 0 0 0 0
0 0 0 0 0 0 0 0 3 0 0 0 0 0 0 0 0 0 0 0 0 0 0 0 0 0 0 0 0 0 0 0 0 0 0 0 0 0 0 0 0 0 0
0 0 0 0 0 0 3 3 3 3 0 0 0 0 0 0 0 0 0 0 0 0 0 0 0 0 0 0 0 0 0 0 0 0 0 0 0 0 0 0 0 0 0
0 0 0 0 0 3 3 3 3 3 3 0 0 0 0 0 0 0 0 0 0 0 0 0 0 0 0 0 0 0 0 0 0 0 0 0 0 0 0 0 0 0 0
0 0 0 0 0 3 3 3 3 0 3 3 3 0 3 0 0 0 0 0 3 0 0 0 0 0 0 0 0 0 0 0 0 0 0 0 0 0 0 0 0 0 0
0 0 0 0 0 3 3 3 3 3 3 3 3 0 3 0 0 0 0 0 0 3 3 0 0 0 0 0 0 0 0 0 0 0 0 0 0 0 0 0 0 0 0
0 0 0 0 0 3 3 3 3 3 3 3 3 0 0 0 0 0 0 0 0 3 3 3 3 0 0 0 0 0 0 0 0 0 0 0 0 0 0 0 0 0 0
0 0 0 0 0 0 3 3 3 3 0 0 0 0 0 0 0 0 0 0 0 3 3 3 3 3 0 0 0 0 0 0 0 0 0 0 0 0 0 0 0 0 0
0 0 0 0 0 0 3 3 3 3 0 0 0 0 0 0 0 0 0 0 0 3 3 3 3 3 3 0 0 0 0 0 0 0 0 0 0 0 0 0 0 0 0
0 0 0 0 0 0 3 3 3 3 0 0 0 0 0 0 0 0 0 0 0 3 3 3 3 3 3 0 0 0 0 0 0 0 0 0 0 0 0 0 0 0 0
0 0 0 0 0 0 3 3 0 0 0 0 0 0 0 0 0 0 0 0 0 0 0 3 3 3 0 0 0 0 0 0 0 0 0 0 0 0 0 0 0 0 0
0 0 0 0 0 0 0 0 0 0 0 0 0 0 0 0 0 0 0 0 0 0 0 0 0 0 0 0 0 0 0 0 0 0 0 0 0 0 0 0 0 0 0
0 0 0 0 0 0 0 0 0 0 0 0 0 0 0 0 0 0 0 0 0 0 0 0 0 0 0 0 0 0 0 0 0 0 0 0 0 0 0 0 0 0 0
0 0 0 0 0 0 0 0 0 0 0 0 0 0 0 0 0 0 0 0 0 0 0 0 0 0 0 0 0 0 0 0 0 0 0 0 0 0 0 0 0 0 0
0 0 0 0 0 0 0 0 0 0 0 0 0 0 0 0 0 0 0 0 0 0 0 0 0 0 0 0 0 0 0 0 0 0 0 0 0 0 0 0 0 0 0
0 0 0 0 0 0 0 0 0 0 0 0 0 0 0 0 0 0 0 0 0 0 0 0 0 0 0 0 0 0 0 0 0 0 0 0 0 0 0 0 0 0 0
0 0 0 0 0 0 0 0 0 0 0 0 0 0 0 0 0 0 0 0 0 0 0 0 0 0 0 0 0 0 0 0 0 0 0 0 0 0 0 0 0 0 0
0 0 0 0 0 0 0 0 0 0 0 0 0 0 0 0 0 0 0 0 0 0 0 0 0 0 0 0 0 0 0 0 0 0 0 0 0 0 0 0 0 0 0
0 0 0 0 0 0 0 0 0 0 0 0 0 0 0 0 0 0 0 0 0 0 0 0 0 0 0 0 0 0 0 0 0 0 0 0 0 0 0 0 0 0 0
0 0 0 0 0 0 0 0 0 0 0 0 0 0 0 0 0 0 0 0 0 0 0 0 0 0 0 0 0 0 0 0 0 0 0 0 0 0 0 0 0 0 0
0 0 0 0 0 0 0 0 0 0 0 0 0 0 0 0 0 0 0 0 0 0 0 0 0 0 0 0 0 0 0 0 0 0 0 0 0 0 0 0 0 0 0
0 0 0 0 0 0 0 0 0 0 0 0 0 0 0 0 0 0 0 0 0 0 0 0 0 0 0 0 0 0 0 0 0 0 0 0 0 0 0 0 0 0 0
0 0 0 0 0 0 0 0 0 0 0 0 0 0 0 0 0 0 0 0 0 0 0 0 0 0 0 0 0 0 0 0 0 0 0 0 0 0 0 0 0 0 0
0 0 0 0 0 0 0 0 0 0 0 0 0 0 0 0 0 0 0 0 0 0 0 0 0 0 0 0 0 0 0 0 0 0 0 0 0 0 0 0 0 0 0
0 0 0 0 0 0 0 0 0 0 0 0 0 0 0 0 0 0 0 0 0 0 0 0 0 0 0 0 0 0 0 0 0 0 0 0 0 0 0 0 0 0 0
Height
5724 5724 5725 5726 5726 5727 5728 5729 5731 5732 5734 5735 5737 5738 5739 5740 5741 5741 5741 5741 5741 5741 5741 5741 5740 5740 5739 5739 5738 5736 5736 5735 5733 5731 5731 5731 5730 5730 5729 5728 5728 5728 5727
5714 5715 5716 5717 5717 5717 5718 5719 5720 5721 5723 5725 5727 5728 5729 5730 5730 5730 5730 5730 5730 5730 5729 5729 5728 5727 5727 5726 5725 5723 5722 5721 5719 5717 5716 5717 5718 5717 5716 5715 5714 5714 5714
5705 5705 5706 5707 5707 5707 5708 5708 5709 5710 5712 5714 5716 5717 5718 5718 5719 5719 5719 5719 5718 5718 5717 5716 5716 5715 5714 5713 5712 5710 5708 5707 5705 5703 5702 5702 5703 5703 5703 5702 5701 5700 5700
5694 5695 5696 5696 5696 5697 5697 5697 5698 5699 5701 5703 5704 5706 5707 5707 5708 5708 5707 5707 5706 5706 5705 5704 5703 5702 5701 5700 5698 5696 5694 5692 5692 5690 5688 5687 5687 5686 5687 5689 5687 5685 5685
5684 5684 5685 5685 5686 5686 5686 5686 5687 5688 5690 5692 5693 5694 5695 5695 5696 5695 5695 5695 5694 5693 5692 5691 5690 5689 5687 5686 5684 5682 5680 5679 5678 5676 5674 5673 5671 5670 5669 5671 5672 5670 5669
5673 5673 5674 5674 5674 5675 5675 5675 5676 5677 5679 5680 5681 5682 5683 5683 5683 5683 5682 5682 5681 5680 5679 5678 5676 5675 5673 5672 5670 5668 5667 5665 5663 5662 5660 5658 5656 5654 5652 5652 5654 5654 5654
5662 5662 5662 5663 5663 5663 5663 5663 5664 5665 5667 5668 5669 5670 5670 5670 5670 5670 5670 5669 5668 5667 5666 5664 5663 5661 5659 5657 5656 5654 5653 5651 5649 5647 5645 5642 5640 5638 5636 5634 5635 5635 5637
5651 5651 5651 5651 5651 5651 5651 5652 5652 5653 5655 5656 5657 5657 5657 5657 5657 5656 5656 5655 5654 5653 5652 5650 5648 5646 5644 5643 5641 5639 5638 5636 5634 5632 5629 5627 5625 5622 5620 5618 5617 5618 5621
5639 5639 5639 5639 5639 5639 5639 5640 5641 5641 5643 5643 5643 5644 5643 5643 5643 5643 5642 5641 5640 5639 5637 5635 5633 5631 5629 5627 5626 5624 5623 5621 5619 5617 5614 5612 5610 5608 5606 5604 5603 5602 5603
5628 5628 5628 5628 5627 5627 5628 5629 5629 5630 5631 5631 5631 5631 5631 5630 5630 5629 5628 5627 5626 5624 5622 5620 5618 5616 5614 5612 5611 5609 5608 5606 5604 5602 5600 5598 5596 5594 5592 5590 5589 5589 5589
5617 5617 5617 5617 5617 5617 5617 5618 5618 5619 5619 5619 5619 5619 5618 5617 5617 5616 5614 5613 5611 5609 5607 5605 5603 5602 5600 5598 5596 5594 5593 5591 5590 5588 5585 5584 5582 5579 5578 5577 5576 5576 5576
5606 5606 5607 5607 5607 5607 5608 5608 5608 5608 5608 5607 5607 5607 5606 5605 5604 5602 5601 5599 5597 5595 5593 5591 5589 5588 5586 5585 5582 5581 5579 5577 5576 5574 5572 5570 5568 5566 5565 5564 5564 5564 5565
5596 5596 5596 5597 5597 5597 5597 5597 5597 5597 5597 5596 5595 5594 5593 5592 5591 5590 5588 5586 5584 5582 5579 5577 5575 5573 5572 5571 5569 5567 5566 5564 5563 5562 5560 5558 5555 5554 5553 5552 5552 5552 5553
5584 5585 5586 5586 5586 5587 5587 5586 5586 5585 5585 5584 5583 5582 5581 5580 5579 5577 5575 5573 5571 5569 5566 5564 5562 5560 5559 5558 5557 5555 5554 5553 5552 5550 5549 5547 5545 5543 5542 5541 5541 5541 5542
5573 5574 5575 5575 5575 5576 5576 5576 5575 5574 5573 5572 5571 5571 5569 5568 5566 5565 5563 5561 5558 5556 5554 5551 5550 5548 5547 5546 5545 5544 5543 5542 5541 5540 5538 5537 5535 5533 5532 5531 5531 5530 5531
5562 5563 5564 5564 5565 5565 5565 5565 5564 5563 5562 5561 5560 5559 5558 5557 5555 5553 5551 5549 5547 5545 5543 5540 5539 5537 5537 5535 5534 5532 5532 5531 5530 5529 5528 5527 5525 5524 5523 5522 5521 5521 5521
5551 5552 5552 5553 5554 5554 5554 5554 5553 5552 5551 5550 5549 5548 5547 5545 5544 5542 5540 5538 5536 5534 5532 5530 5528 5527 5527 5525 5524 5522 5522 5521 5520 5519 5518 5517 5516 5514 5514 5513 5513 5513 5513
5541 5541 5542 5542 5543 5543 5543 5543 5542 5541 5540 5539 5539 5537 5536 5535 5533 5531 5529 5527 5526 5524 5522 5521 5519 5518 5517 5515 5514 5513 5512 5511 5510 5509 5508 5507 5506 5505 5504 5504 5504 5505 5506
5530 5531 5531 5532 5532 5532 5532 5532 5531 5530 5530 5529 5528 5527 5526 5524 5523 5521 5519 5518 5517 5515 5513 5511 5510 5509 5508 5506 5505 5503 5502 5502 5501 5500 5499 5498 5497 5496 5495 5495 5496 5497 5498
5519 5520 5521 5521 5522 5522 5522 5522 5521 5520 5520 5519 5518 5516 5515 5514 5513 5511 5510 5508 5507 5506 5504 5503 5501 5500 5499 5497 5496 5495 5493 5493 5493 5492 5491 5490 5489 5488 5488 5488 5489 5490 5491
5509 5509 5510 5511 5511 5512 5512 5512 5511 5511 5510 5509 5508 5507 5506 5504 5503 5502 5501 5499 5498 5497 5495 5494 5493 5491 5490 5489 5488 5487 5486 5485 5485 5484 5484 5483 5482 5481 5481 5481 5482 5483 5483
5499 5499 5500 5501 5501 5502 5502 5502 5502 5501 5501 5500 5499 5498 5496 5495 5494 5493 5491 5490 5489 5488 5487 5486 5484 5483 5482 5481 5480 5479 5478 5478 5477 5477 5477 5476 5475 5475 5475 5475 5475 5476 5476
5489 5490 5490 5491 5492 5492 5492 5492 5492 5492 5492 5491 5489 5488 5487 5486 5484 5483 5482 5481 5480 5479 5478 5477 5477 5476 5475 5474 5472 5471 5471 5470 5470 5470 5469 5469 5468 5468 5468 5468 5468 5469 5469
5480 5481 5481 5482 5482 5482 5482 5483 5483 5482 5482 5481 5480 5479 5478 5477 5476 5475 5474 5473 5472 5471 5470 5470 5469 5468 5467 5466 5465 5464 5463 5463 5463 5463 5463 5462 5462 5462 5462 5462 5462 5463 5463
5471 5472 5472 5473 5473 5473 5473 5473 5473 5473 5472 5472 5471 5470 5469 5469 5468 5467 5466 5465 5465 5463 5463 5462 5461 5461 5460 5459 5458 5457 5457 5457 5456 5456 5456 5456 5455 5455 5456 5456 5456 5457 5457
5461 5462 5463 5463 5463 5464 5464 5464 5464 5463 5463 5463 5462 5462 5461 5460 5460 5459 5458 5457 5457 5456 5455 5455 5454 5453 5453 5451 5451 5450 5450 5450 5450 5450 5450 5449 5449 5449 5450 5450 5451 5452 5453
Wind_Speed
35 35 35 35 35 36 38 39 40 40 41 41 41 42 43 43 44 45 46 46 47 47 47 48 49 49 50 50 51 51 52 52 53 54 54 54 54 53 52 53 53 53 53
37 37 37 37 37 38 38 39 41 42 42 42 43 43 44 44 45 45 46 47 47 47 48 49 49 50 51 51 51 52 52 53 54 55 55 54 53 53 53 53 54 54 54
38 38 38 38 39 39 39 40 41 42 43 43 43 43 44 45 46 46 47 47 48 48 48 49 49 50 51 51 51 52 53 53 53 52 53 54 54 54 54 54 55 56 56
39 39 39 39 39 40 40 41 41 42 43 43 44 44 45 46 46 47 47 48 48 48 49 49 50 51 51 52 53 54 53 53 53 54 55 55 56 57 56 56 57 58 58
39 39 39 40 40 40 41 41 42 43 44 44 45 45 46 47 47 48 49 49 49 49 50 50 51 52 52 53 53 53 53 54 54 55 56 57 58 58 59 58 58 58 59
41 41 40 40 41 41 42 42 43 43 44 44 44 45 47 48 48 49 50 50 50 51 51 52 53 53 54 54 53 54 54 54 55 56 57 58 58 59 60 60 59 59 59
41 41 41 42 42 43 43 43 43 44 44 45 45 46 48 49 50 50 50 51 52 52 52 53 54 55 55 55 55 55 54 55 56 56 57 58 59 59 59 59 59 59 57
40 41 42 42 43 43 43 43 44 44 45 46 47 48 49 50 51 51 51 52 52 53 53 54 54 55 55 55 56 56 56 56 57 57 57 58 58 57 57 56 56 56 55
40 41 41 41 42 43 42 43 44 44 45 45 47 48 49 50 50 51 51 52 53 53 54 54 55 55 55 55 56 56 56 56 56 56 56 56 55 55 54 53 53 53 53
39 40 40 41 41 41 42 42 43 44 45 46 47 47 48 48 49 50 52 53 54 54 54 54 55 55 55 55 56 56 55 55 55 54 53 53 52 53 53 52 51 51 50
39 39 39 40 40 40 40 41 42 43 44 46 47 47 48 48 49 50 52 53 53 53 54 54 54 54 53 53 53 53 53 53 52 52 51 51 51 50 51 50 49 48 48
38 38 38 39 39 40 40 40 41 42 44 45 47 48 48 48 49 50 51 51 51 52 52 53 52 51 51 50 50 50 50 50 49 49 48 48 48 47 47 47 46 46 46
39 38 38 38 39 39 40 41 41 42 43 45 46 46 46 47 48 49 49 50 50 50 50 50 50 49 49 48 47 47 47 46 45 45 45 44 44 44 44 44 45 45 45
40 39 39 39 39 39 39 40 41 42 43 44 44 44 45 46 46 47 47 48 48 48 48 48 47 47 47 46 45 45 44 43 42 42 42 41 40 40 41 43 43 43 43
39 40 39 39 39 39 39 40 40 41 41 42 41 42 43 44 45 45 46 46 47 47 46 45 44 44 44 45 43 43 42 41 40 40 40 39 38 38 39 40 40 40 40
39 40 40 40 40 39 39 40 40 40 40 40 41 42 42 43 44 44 44 45 45 44 43 43 43 42 43 42 42 41 39 39 39 39 38 37 36 36 37 37 37 37 37
38 39 39 40 40 40 40 39 39 39 39 40 40 41 41 42 42 42 43 43 42 42 41 41 40 40 39 40 40 39 38 37 37 37 36 35 35 35 35 35 35 34 34
37 38 38 38 40 40 39 39 39 39 39 39 40 40 40 41 40 41 40 40 39 39 39 39 39 39 39 38 38 37 37 36 35 34 34 34 34 34 34 34 33 33 33
37 37 37 38 38 39 39 38 38 38 38 38 39 38 39 39 38 38 38 37 37 37 37 37 38 38 37 36 35 35 35 34 33 32 32 32 32 32 31 31 31 31 31
36 37 37 37 36 36 36 37 37 36 36 36 37 37 37 37 37 37 36 36 36 36 35 35 35 34 33 33 33 34 33 31 30 29 29 29 29 29 29 28 28 27 27
35 35 35 35 35 35 35 35 35 35 34 35 36 36 36 36 36 36 36 35 34 33 33 33 32 31 31 31 31 30 29 28 28 28 27 27 27 27 27 26 26 26 26
33 33 33 33 34 34 35 35 34 34 34 34 35 35 35 34 34 35 34 33 33 32 31 31 30 30 29 29 29 28 29 28 27 26 26 25 25 25 25 25 24 25 25
32 32 32 33 33 33 34 35 34 34 34 35 34 34 33 33 33 32 32 32 31 30 30 29 29 29 29 29 28 28 28 28 27 26 25 25 25 25 25 25 24 24 23
32 32 32 32 32 32 33 33 33 33 33 32 32 32 32 31 31 31 30 29 29 28 28 27 28 28 28 27 27 27 26 25 25 24 24 24 24 24 24 24 23 22 21
31 31 31 32 32 32 32 32 31 31 30 30 30 30 30 30 29 29 28 27 27 27 27 27 27 27 27 26 26 25 25 24 24 24 23 23 23 22 22 22 21 20 19
30 30 31 31 31 31 31 31 31 30 29 28 28 28 27 28 28 27 27 26 26 26 26 26 26 26 25 25 25 25 24 24 24 23 23 22 21 21 20 19 19 18 17
Wind_Direction
254 256 257 258 259 259 258 257 256 256 257 258 260 261 263 264 266 266 267 267 268 268 269 270 270 271 271 272 273 273 273 273 273 273 273 273 273 272 272 271 271 269 268
256 257 258 260 260 261 261 259 258 257 257 258 260 261 263 265 266 267 267 268 269 270 270 271 271 272 272 273 274 275 275 275 274 274 272 271 271 271 272 271 270 269 269
258 259 259 260 261 261 261 260 258 257 258 259 260 262 263 264 266 267 269 270 270 271 271 272 272 273 273 274 274 275 276 275 274 273 273 273 272 272 271 271 270 269 268
258 259 260 260 261 262 261 260 259 258 258 259 261 262 263 265 267 269 270 270 271 272 272 272 273 274 274 275 275 276 275 275 274 274 274 274 275 274 272 270 271 270 269
258 259 260 260 261 262 262 261 260 259 259 260 261 263 264 266 267 269 270 271 271 272 272 273 273 274 275 276 275 275 275 275 275 275 275 275 275 275 275 272 270 271 271
258 259 260 261 261 262 262 261 260 260 260 261 262 264 266 267 268 269 270 271 272 273 273 274 274 275 276 276 276 276 276 276 276 276 276 276 276 277 276 274 272 271 271
258 260 261 262 262 263 263 262 261 260 261 261 263 265 267 268 269 270 270 271 272 273 274 275 275 275 276 276 276 275 276 276 276 277 278 278 278 278 277 276 274 272 271
260 261 262 262 262 263 262 261 260 261 261 262 264 266 268 269 269 270 270 272 272 273 275 276 276 276 276 276 275 275 276 276 277 278 278 278 278 277 277 276 275 273 271
262 262 262 263 263 262 262 261 261 261 262 264 266 266 268 268 269 270 271 272 273 274 275 276 276 276 276 276 276 276 275 276 277 278 278 278 277 276 276 275 274 273 272
264 263 264 264 263 262 262 261 262 262 263 265 267 267 268 269 270 271 272 273 274 275 275 276 276 276 276 277 277 276 276 276 277 278 277 277 277 276 274 273 273 272 272
264 264 264 263 262 262 263 262 262 262 264 267 267 267 268 269 270 272 273 274 274 275 276 276 276 276 276 277 279 277 276 276 277 277 277 277 277 275 273 272 271 271 271
263 263 263 262 262 263 263 263 263 264 266 267 268 269 269 270 271 273 274 274 275 276 277 277 277 276 276 278 279 278 277 276 276 277 277 277 276 274 272 271 270 270 270
263 263 262 262 263 263 264 264 265 266 267 268 270 270 270 271 273 274 275 275 276 278 278 277 277 275 276 277 278 278 277 276 276 277 277 277 275 273 272 270 270 269 269
263 262 262 263 263 263 264 265 267 268 269 270 271 270 271 273 274 275 276 277 277 278 277 276 276 275 274 276 278 277 276 276 276 277 277 276 275 274 272 271 270 269 269
264 262 262 263 264 264 265 266 267 269 270 270 270 271 272 274 275 276 277 278 279 278 277 276 275 275 275 276 277 277 276 275 276 276 275 275 275 274 274 272 271 270 269
263 261 262 263 264 265 266 267 269 270 270 269 270 271 273 275 276 277 277 278 278 277 277 276 275 274 275 276 277 277 276 276 275 274 273 274 274 274 273 272 270 269 267
263 263 263 262 263 264 265 267 269 270 270 270 270 272 274 275 277 277 278 277 276 276 276 276 276 276 276 276 275 275 276 277 275 273 273 274 274 274 272 271 269 267 266
262 262 261 262 263 264 265 267 269 270 271 270 270 271 274 275 276 276 276 276 275 275 275 275 275 275 276 276 274 275 276 275 274 273 273 273 274 274 272 270 267 266 266
262 262 262 262 264 264 265 267 268 269 270 270 270 271 273 274 274 274 274 275 275 275 276 276 276 275 274 273 274 276 276 275 273 273 273 273 273 273 272 269 266 264 263
262 263 263 264 265 264 265 266 267 268 268 269 269 271 272 273 272 272 272 273 273 274 275 275 276 274 273 273 273 275 275 273 273 274 275 274 272 271 269 267 266 264 263
262 262 263 264 264 264 265 267 267 267 268 268 269 271 272 272 272 271 272 272 272 272 273 275 274 273 273 273 274 275 274 274 274 274 275 274 272 271 269 267 267 264 263
260 260 261 262 263 264 265 267 268 268 268 269 270 271 272 272 272 271 272 272 272 272 273 273 272 272 273 273 273 273 274 275 275 273 273 272 273 271 269 268 267 265 263
259 260 261 261 262 263 265 266 267 268 268 269 269 270 271 271 271 270 271 272 272 272 271 270 271 271 272 273 273 273 274 274 274 272 271 272 273 272 269 267 266 264 262
259 260 261 261 262 263 265 265 267 267 267 268 268 269 270 270 270 270 271 272 271 270 270 270 272 272 272 273 272 272 272 271 271 272 272 273 273 271 269 265 263 261 261
261 262 262 263 263 263 265 265 267 268 268 268 269 270 269 269 271 272 271 270 270 271 272 273 273 273 272 272 272 272 271 270 271 273 274 272 270 268 264 261 260 259 258
262 262 264 265 264 264 265 266 267 267 267 267 268 269 269 270 270 270 270 269 270 271 273 274 274 273 273 272 270 271 270 271 273 274 273 271 266 263 259 257 255 255 254